ATLAS 5 CENTAUR DEB, 44684

Orbit data source: Space-Track

ATLAS 5 CENTAUR DEB, 44684 is space debris in HEO originally from a launch on Wed, 17 Oct 2018 UTC launched from the Air Force Eastern Test Range (AFETR). Debris objects in space refer to the collection of defunct objects orbiting the Earth. Examples of debris include non-operational satellites, rocket bodies, and fragments generated from explosions, collisions, or faulty payload assembly.

Loading next visibility...
Identifier
44684, 2018-079AW
Orbit
HEO
Country
Flag of USUS
Related business
Flag of USUnited Launch Alliance/Lockheed Martin (US)
Manufacturer
ULA Decatur
Mission
Spacecraft
Bus & Motor
Unknown
Mass
Unknown
Launch date (UTC)
2018-10-17 (8 years ago)
Launch vehicle
Unknown
Launch site
Air Force Eastern Test Range (AFETR)
Object type
Payload
Rocket body
Debris
Shape & HBR
Unknown shape, 1.1 m
Radar Cross Section
RCS unknown

Expand to show TLE details & history
Last TLE update: 23 hours ago

TLE from 23 hours ago
0 ATLAS 5 CENTAUR DEB
1 44684U 18079AW  26124.44514788 -.00000130  00000-0  00000+0 0  9991
2 44684  13.2492  37.8836 4666840 311.7831  16.8764  1.83140045 46268
Epoch: 2026-05-04T10:41Z
TLE epoch observation values (Epoch: 2026-05-04T10:41:00.776Z)
Latitude
-0.00002°
Longitude
15.23205°
Altitude
10,459.764 km
Speed
5.764 km/s
True Right ascension
02h 31m 16s
True Declination
0° 00' 00"
Sunlit
Object was in daylight at epoch
Visualization orbit readout
Latitude
Unknown
Longitude
Unknown
Altitude
Unknown
Speed
Unknown
Apparent Right ascension
Unknown
Apparent Declination
Unknown
Sunlit
N/A
Visualization observer readout
Local Sidereal Time
17:57:13
Azimuth
Unknown
Elevation
Unknown
Doppler factor
Unknown
Orbital elements
Apogee altitude
35,013.738 km
Perigee altitude
8,672.787 km
Semi-major axis
28,221.4 km
Eccentricity
0.46668
Inclination
13.2492°
RAAN
37.8836°
Arg. of periapsis
311.7831°
True anomaly
48.52713°
Mean anomaly
16.8764°
Eccentric anomaly
30.41213°
Mean motion
0.4578 °/min
Orbital period
786.37 mins
BSTAR
0
Loading maneuver chart data...
Computing Atmospheric mass density...

Documentation

Showing up to 5 results
|